This demonstration page uses our WeatherBlox Daily Observations layout. Learn more.

Left ArrowRight Arrow

Hourly Observations for December 19, 2016

Temp ( °F °C ) Dew Point ( °F °C ) Humidity (%) Winds ( mph kmh ) Pressure ( in mb ) Visibility ( mi km ) Precip ( " mm )
12:00 am 00:00 Clear 3 -16 N/A 85 85 NW 5 7 30.80 1043 10 16 N/A
12:19 am 00:19 Clear 3 -16 N/A 85 85 NNW 6 9 30.80 1043 10 16 N/A
12:40 am 00:40 Clear 3 -16 N/A 85 85 NNW 6 9 30.80 1043 10 16 N/A
12:59 am 00:59 Clear 3 -16 -2 -19 78 78 NW 5 7 30.80 1043 10 16 N/A
1:19 am 01:19 Clear 1 -17 -2 -19 85 85 NW 5 7 30.80 1043 10 16 N/A
1:40 am 01:40 Clear 1 -17 -2 -19 85 85 NNW 5 7 30.80 1043 10 16 N/A
1:59 am 01:59 Clear 1 -17 -2 -19 85 85 NNW 3 6 30.83 1044 10 16 N/A
2:20 am 02:20 Clear 1 -17 -4 -20 78 78 N N/A 30.83 1044 10 16 N/A
2:40 am 02:40 Clear 1 -17 -4 -20 78 78 NW 5 7 30.83 1044 10 16 N/A
2:59 am 02:59 Clear 1 -17 -4 -20 78 78 NW 3 6 30.83 1044 10 16 N/A
3:20 am 03:20 Clear N/A -4 -20 84 84 NW 3 6 30.86 1045 10 16 N/A
3:39 am 03:39 Clear N/A -4 -20 84 84 NNW 3 6 30.83 1044 10 16 N/A
4:00 am 04:00 Clear N/A -4 -20 84 84 NNW 3 6 30.83 1044 10 16 N/A
4:20 am 04:20 Clear N/A -6 -21 78 78 NNW 3 6 30.86 1045 10 16 N/A
4:39 am 04:39 Clear N/A -6 -21 78 78 NNW 5 7 30.83 1044 10 16 N/A
5:00 am 05:00 Clear N/A -6 -21 78 78 NNW 3 6 30.83 1044 10 16 N/A
5:19 am 05:19 Clear N/A -6 -21 78 78 N N/A 30.83 1044 10 16 N/A
5:40 am 05:40 Clear N/A -6 -21 78 78 N N/A 30.86 1045 10 16 N/A
6:00 am 06:00 Clear N/A -6 -21 78 78 NW 3 6 30.86 1045 10 16 N/A
6:19 am 06:19 Clear N/A -6 -21 78 78 NNW 3 6 30.86 1045 10 16 N/A
6:40 am 06:40 Clear N/A -6 -21 78 78 N N/A 30.83 1044 10 16 N/A
7:00 am 07:00 Clear N/A -4 -20 84 84 N N/A 30.86 1045 10 16 N/A
7:19 am 07:19 Clear N/A -6 -21 78 78 N N/A 30.86 1045 10 16 N/A
7:40 am 07:40 Clear N/A -6 -21 78 78 N N/A 30.86 1045 10 16 N/A
7:59 am 07:59 Clear N/A -6 -21 78 78 N 3 6 30.86 1045 10 16 N/A
8:19 am 08:19 Sunny N/A -6 -21 78 78 N 3 6 30.86 1045 10 16 N/A
8:40 am 08:40 Sunny 1 -17 -4 -20 78 78 N 3 6 30.86 1045 10 16 N/A
8:59 am 08:59 Sunny 1 -17 -4 -20 78 78 N 3 6 30.86 1045 10 16 N/A
9:19 am 09:19 Sunny 3 -16 -4 -20 72 72 N N/A 30.86 1045 10 16 N/A
9:40 am 09:40 Sunny 3 -16 -6 -21 66 66 N 3 6 30.89 1046 10 16 N/A
9:59 am 09:59 Sunny 3 -16 -6 -21 66 66 N N/A 30.89 1046 10 16 N/A
10:20 am 10:20 Sunny 3 -16 -4 -20 72 72 N N/A 30.89 1046 10 16 N/A
10:40 am 10:40 Sunny 5 -15 -4 -20 66 66 N N/A 30.89 1046 10 16 N/A
10:59 am 10:59 Sunny 7 -14 -4 -20 61 61 N N/A 30.89 1046 10 16 N/A
11:20 am 11:20 Sunny 9 -13 -2 -19 61 61 NNE 3 6 30.86 1045 10 16 N/A
11:40 am 11:40 Sunny 9 -13 -2 -19 61 61 N N/A 30.86 1045 10 16 N/A
11:59 am 11:59 Sunny 10 -12 N/A 61 61 N N/A 30.83 1044 10 16 N/A
12:20 pm 12:20 Sunny 10 -12 N/A 61 61 N N/A 30.83 1044 10 16 N/A
12:40 pm 12:40 Sunny 12 -11 N/A 57 57 N N/A 30.83 1044 10 16 N/A
12:59 pm 12:59 Sunny 14 -10 1 -17 57 57 N N/A 30.83 1044 10 16 N/A
1:20 pm 13:20 Sunny 16 -9 1 -17 53 53 N N/A 30.80 1043 10 16 N/A
1:40 pm 13:40 Sunny 16 -9 1 -17 53 53 N N/A 30.80 1043 10 16 N/A
1:59 pm 13:59 Sunny 16 -9 N/A 48 48 N N/A 30.77 1042 10 16 N/A
2:20 pm 14:20 Sunny 16 -9 N/A 48 48 N N/A 30.77 1042 10 16 N/A
2:40 pm 14:40 Sunny 18 -8 1 -17 49 49 SE 3 6 30.77 1042 10 16 N/A
2:59 pm 14:59 Sunny 18 -8 3 -16 53 53 S 6 9 30.77 1042 10 16 N/A
3:20 pm 15:20 Sunny 19 -7 3 -16 49 49 S 5 7 30.74 1041 10 16 N/A
3:40 pm 15:40 Sunny 19 -7 5 -15 53 53 S 6 9 30.74 1041 10 16 N/A
3:59 pm 15:59 Sunny 19 -7 3 -16 49 49 S 6 9 30.71 1040 10 16 N/A
4:20 pm 16:20 Sunny 19 -7 3 -16 49 49 S 6 9 30.71 1040 10 16 N/A
4:40 pm 16:40 Sunny 19 -7 5 -15 53 53 S 5 7 30.71 1040 10 16 N/A
4:59 pm 16:59 Sunny 19 -7 7 -14 58 58 SSE 5 7 30.71 1040 10 16 N/A
5:20 pm 17:20 Sunny 18 -8 7 -14 62 62 S 6 9 30.74 1041 10 16 N/A
5:40 pm 17:40 Clear 16 -9 5 -15 62 62 S 6 9 30.74 1041 10 16 N/A
5:59 pm 17:59 Clear 16 -9 5 -15 62 62 SSW 5 7 30.74 1041 10 16 N/A
6:20 pm 18:20 Clear 16 -9 5 -15 62 62 SSW 3 6 30.74 1041 10 16 N/A
6:39 pm 18:39 Clear 14 -10 5 -15 67 67 S 5 7 30.74 1041 10 16 N/A
6:59 pm 18:59 Clear 14 -10 5 -15 67 67 SSE 5 7 30.71 1040 10 16 N/A
7:20 pm 19:20 Clear 14 -10 5 -15 67 67 N N/A 30.74 1041 10 16 N/A
7:39 pm 19:39 Clear 14 -10 5 -15 67 67 N N/A 30.74 1041 10 16 N/A
7:59 pm 19:59 Clear 12 -11 7 -14 79 79 N N/A 30.71 1040 10 16 N/A
8:20 pm 20:20 Clear 12 -11 7 -14 79 79 S 3 6 30.71 1040 10 16 N/A
8:39 pm 20:39 Clear 12 -11 7 -14 79 79 S 3 6 30.71 1040 10 16 N/A
8:59 pm 20:59 Clear 12 -11 7 -14 79 79 S 5 7 30.71 1040 10 16 N/A
9:20 pm 21:20 Clear 12 -11 5 -15 73 73 S 6 9 30.68 1039 10 16 N/A
9:39 pm 21:39 Clear 12 -11 5 -15 73 73 S 5 7 30.68 1039 10 16 N/A
9:59 pm 21:59 Clear 12 -11 7 -14 79 79 SSE 5 7 30.71 1040 10 16 N/A
10:20 pm 22:20 Clear 12 -11 7 -14 79 79 S 5 7 30.68 1039 10 16 N/A
10:39 pm 22:39 Clear 12 -11 7 -14 79 79 S 3 6 30.68 1039 10 16 N/A
10:59 pm 22:59 Clear 12 -11 7 -14 79 79 S 3 6 30.68 1039 10 16 N/A
11:20 pm 23:20 Clear 12 -11 7 -14 79 79 S 5 7 30.68 1039 10 16 N/A
11:39 pm 23:39 Clear 12 -11 7 -14 79 79 S 5 7 30.68 1039 10 16 N/A

Powered by AerisWeather